Location: Unspecified
(47.4992°N, 121.7766°W)
Time: 17:45:59
(UTC-07:00)

Okean 3 - Visible Passes

Search period start: 29 March 2023 00:00
Search period end: 08 April 2023 00:00
Orbit: 570 x 594 km, 82.5° (Epoch: 29 March)

Date Brightness Start Highest point End Pass type
(mag) Time Alt. Az. Time Alt. Az. Time Alt. Az.
29 Mar 6.3 20:21:59 10° NW 20:25:18 23° W 20:28:37 10° SW visible
30 Mar 6.6 20:28:15 10° NW 20:30:59 17° W 20:33:42 10° SW visible
31 Mar 6.9 20:34:52 10° WNW 20:36:38 12° W 20:38:23 10° WSW visible
